Home   Weather   Jersey City   Past weeks

Flag for USA Past Weather in Jersey City, New Jersey, USA — Yesterday and Last 2 Weeks

Now
67 °F

Broken clouds.


Feels Like: 67 °F
Forecast: 56 / 80 °F
Wind: 6 mph from West

Location: Newark International Airport

Current Time: Apr 28, 2017 at 10:34:38 am

Latest Report: Apr 28, 2017 at 9:42 am


Visibility: 6 mi

Pressure: 29.98 "Hg

Humidity: 81%

Dew Point: 61 °F

Location of Jersey CityLocation

Past Weather in Jersey City — Graph

°F

Jersey City Temperature Yesterday

Maximum temperature yesterday: 68 °F (at 12:51 pm)
Minimum temperature yesterday: 56 °F (at 9:13 pm)
Average temperature yesterday: 60 °F

High & Low Weather Summary for the Past Weeks

 TemperatureHumidityPressure
High87 °F (Apr 16, 1:51 pm)100% (Apr 26, 12:51 am)30.53 "Hg (Apr 26, 12:51 am)
Low46 °F (Apr 14, 4:51 am)17% (Apr 17, 3:51 pm)29.74 "Hg (Apr 26, 5:51 am)
Average57 °F69%30.08 "Hg
* Reported Apr 13 8:51 am — Apr 28 8:51 am, Jersey City, Weather by CustomWeather, © 2017

Note: Actual official high and low records may vary slightly from our data, if they occured in-between our weather recording intervals... More about our weather records

Advertising

Jersey City Weather History for the Previous 24 Hours

Scroll right to see more
 ConditionsComfort  
Time TempWeatherWind HumidityBarometerVisibility
8:51 am
Fri, Apr 28
63 °FFog.3 mph93%29.97 "Hg2 mi
7:51 am60 °FFog.3 mph96%29.96 "Hg1 mi
6:51 am59 °FFog.5 mph96%29.92 "Hg1 mi
6:30 am59 °FFog.3 mph96%29.93 "Hg1 mi
5:51 am58 °FFog.No wind100%29.90 "Hg1 mi
4:51 am57 °FFog.No wind100%29.89 "Hg1 mi
3:51 am57 °FLight rain. Fog.3 mph96%29.86 "Hg1 mi
2:51 am56 °FFog.No wind100%29.87 "Hg1 mi
1:51 am56 °FFog.5 mph100%29.87 "Hg1 mi
1:05 am56 °FFog.5 mph97%29.86 "Hg1 mi
12:51 am56 °FFog.6 mph97%29.86 "Hg1 mi
11:51 pm
Thu, Apr 27
56 °FFog.5 mph97%29.88 "Hg1 mi
10:51 pm56 °FFog.5 mph97%29.88 "Hg1 mi
9:51 pm56 °FDrizzle. Fog.5 mph97%29.89 "Hg1 mi
9:13 pm56 °FDrizzle. Fog.8 mph97%29.88 "Hg1 mi
8:51 pm57 °FDrizzle. Fog.6 mph96%29.88 "Hg1 mi
7:51 pm59 °FDrizzle. Fog.9 mph93%29.88 "Hg1 mi
7:16 pm60 °FDrizzle. Fog.7 mph90%29.88 "Hg1 mi
7:06 pm60 °FDrizzle. Fog.7 mph90%29.88 "Hg2 mi
5:51 pm62 °FCloudy.10 mph80%29.88 "Hg9 mi
5:08 pm63 °FCloudy.9 mph78%29.87 "Hg10 mi
4:51 pm62 °FMostly cloudy.12 mph80%29.87 "Hg9 mi
3:51 pm66 °FCloudy.15 mph73%29.86 "Hg10 mi
2:51 pm68 °FPartly sunny.12 mph68%29.88 "Hg10 mi
1:51 pm68 °FOvercast.10 mph68%29.89 "Hg10 mi
12:51 pm68 °FPartly sunny.7 mph68%29.89 "Hg10 mi
11:51 am66 °FPartly sunny.6 mph73%29.91 "Hg10 mi
10:51 am65 °FPartly sunny.6 mph78%29.90 "Hg8 mi
Weather by CustomWeather, © 2017

See weather overviewHow to use our weather pages